This is the latest recevied weather packets stored in our database for station/object K5GHS-1. If no packets are shown the sender has not sent any weather packets the latest 10 day(s).
| Time | Temp. | Humidity | Pressure | Rain* | Wind** | Luminosity | Snow |
|---|---|---|---|---|---|---|---|
| 1777907428 | 22.78° C | 57% | 1011.1 hPa | 0 mm | - | 570 W/m² | - |
| 1777907125 | 22.22° C | 58% | 1011.1 hPa | 0 mm | - | 507 W/m² | - |
| 1777906823 | 21.67° C | 59% | 1011.4 hPa | 0 mm | - | 446 W/m² | - |
| 1777906520 | 21.67° C | 59% | 1011.2 hPa | 0 mm | - | 405 W/m² | - |
| 1777906215 | 21.67° C | 59% | 1011.4 hPa | 0 mm | - | 398 W/m² | - |
| 1777905912 | 21.67° C | 60% | 1011.1 hPa | 0 mm | - | 340 W/m² | - |
| 1777905609 | 21.11° C | 61% | 1011 hPa | 0 mm | - | 219 W/m² | - |
| 1777905306 | 21.11° C | 62% | 1011.2 hPa | 0 mm | - | 211 W/m² | - |
| 1777905004 | 21.11° C | 62% | 1011.4 hPa | 0 mm | - | 230 W/m² | - |
| 1777904701 | 21.11° C | 62% | 1011.2 hPa | 0 mm | - | 302 W/m² | - |
| 1777904397 | 21.11° C | 62% | 1011.4 hPa | 0 mm | - | 249 W/m² | - |
| 1777904094 | 21.11° C | 63% | 1011.4 hPa | 0 mm | - | 223 W/m² | - |
| 1777903791 | 20.56° C | 63% | 1011.3 hPa | 0 mm | - | 248 W/m² | - |
| 1777903487 | 20.56° C | 64% | 1011.4 hPa | 0 mm | - | 194 W/m² | - |
| 1777903184 | 20.56° C | 64% | 1011.5 hPa | 0 mm | - | 208 W/m² | - |
| 1777902880 | 20.56° C | 64% | 1011.3 hPa | 0 mm | - | 143 W/m² | - |
| 1777902577 | 20.56° C | 65% | 1011.5 hPa | 0 mm | - | 181 W/m² | - |
| 1777902274 | 20° C | 66% | 1011.5 hPa | 0 mm | - | 181 W/m² | - |
| 1777901972 | 19.44° C | 68% | 1011.3 hPa | 0 mm | - | 161 W/m² | - |
| 1777901670 | 18.89° C | 69% | 1011.4 hPa | 0 mm | - | 140 W/m² | - |
| 1777901367 | 18.89° C | 70% | 1011.6 hPa | 0 mm | - | 81 W/m² | - |
| 1777901065 | 18.89° C | 70% | 1011.4 hPa | 0 mm | - | 60 W/m² | - |
| 1777900761 | 19.44° C | 69% | 1011.6 hPa | 0 mm | - | 80 W/m² | - |
| 1777900459 | 18.89° C | 69% | 1011.7 hPa | 0 mm | - | 101 W/m² | - |
| 1777900156 | 18.89° C | 69% | 1011.4 hPa | 0 mm | - | 97 W/m² | - |
* Rain latest hour (hover to see other rain measurements)
** Current wind speed in m/s (hover to see current wind gust speed)